Vorticity
9 9 10 6 8 9 9 8 8 8 7 7 5 4 3 4 5 6 6 6 7 8 8 7 7 7 7 7 7 7 7 7 7 7 7 7 7 7 6 6 6 5 5
4 6 9 10 10 10 9 8 8 8 7 6 4 4 4 4 4 5 4 5 5 5 5 5 6 7 8 8 8 7 8 8 8 7 7 8 8 8 8 7 7 6 5
10 7 3 2 4 5 7 9 8 6 6 5 5 5 6 5 5 5 5 6 5 5 5 5 6 8 8 8 8 9 8 8 8 8 9 10 9 9 9 9 9 8 8
14 18 15 7 5 5 4 5 8 7 6 6 6 5 4 4 7 7 7 6 7 7 7 7 9 9 9 8 7 7 7 7 8 8 8 8 8 7 7 9 8 9 8
-4 12 17 21 10 8 8 8 7 8 8 7 7 7 7 8 5 5 6 7 9 12 13 14 11 9 8 6 7 9 8 9 9 9 8 8 8 8 7 6 7 7 7
1 4 13 15 16 10 8 7 7 7 8 8 8 7 6 5 4 6 8 11 11 12 12 11 9 9 10 12 11 8 6 4 3 2 2 3 3 5 5 5 4 5 5
0 8 12 12 13 13 11 10 9 8 7 6 5 5 5 5 7 8 9 8 13 12 11 10 10 8 6 4 2 2 2 2 2 2 1 1 1 1 2 2 4 3 3
7 9 11 10 11 14 15 12 11 10 7 6 5 6 5 7 8 8 12 10 10 7 6 4 1 1 1 1 1 1 1 1 2 3 3 4 5 4 4 4 7 7 6
9 9 9 8 8 8 10 13 13 12 10 8 6 7 11 9 12 11 9 6 4 3 0 0 1 1 2 2 3 5 8 9 11 12 13 15 16 17 16 15 15 18 16
9 10 9 7 7 7 9 10 12 12 11 11 11 11 11 10 8 7 5 4 1 0 1 1 2 1 6 10 13 14 14 13 12 12 10 9 9 8 9 9 8 9 17
8 8 10 10 9 8 8 9 10 12 11 10 11 11 10 8 6 4 2 1 2 2 2 3 6 11 12 11 11 10 10 10 10 11 11 11 12 11 10 9 7 7 8
9 9 9 10 9 9 9 10 9 8 9 9 8 6 5 4 3 3 1 -0 -1 2 3 8 11 11 9 8 7 6 8 9 9 9 9 9 8 8 7 6 6 8 10
11 13 11 9 10 11 9 7 6 6 6 5 4 4 4 3 3 1 1 2 4 2 8 9 8 7 7 6 7 9 9 9 8 8 8 8 9 9 10 10 11 11 9
12 11 12 10 9 7 6 5 6 6 4 4 4 4 4 3 4 4 4 2 0 10 12 10 10 9 10 10 9 8 8 9 11 12 12 12 14 15 15 17 17 17 17
13 12 11 10 8 6 5 6 6 5 5 5 5 5 5 4 3 4 1 1 14 11 10 9 9 9 7 6 7 9 11 12 13 13 14 13 13 14 13 13 14 19 19
14 12 10 8 5 6 5 5 6 5 5 5 5 6 5 5 6 6 9 11 9 8 9 9 7 7 10 13 16 16 16 15 13 10 11 14 13 12 11 11 15 14 15
14 13 10 7 5 4 5 6 6 6 6 7 7 6 8 8 7 8 9 9 10 10 7 7 8 12 18 19 18 14 11 9 11 12 13 11 7 12 17 19 22 23 21
14 11 8 6 6 6 7 7 7 7 6 6 6 8 9 9 9 10 10 9 7 6 7 10 15 20 15 11 9 8 9 10 11 8 7 7 12 9 8 17 29 27 22
13 10 8 7 7 7 7 6 7 6 7 11 10 11 10 9 9 7 5 5 6 9 12 18 17 13 9 8 9 7 10 6 6 7 6 8 16 17 33 35 28 39 34
7 10 9 7 7 7 7 7 6 8 6 14 9 7 7 7 5 5 8 10 12 16 15 14 13 9 6 6 8 7 5 9 7 5 9 20 25 23 22 23 17 12 31
10 9 7 8 7 7 7 6 2 18 13 6 8 8 5 5 7 10 11 12 11 10 11 8 2 5 8 8 8 8 9 8 6 6 8 27 21 -4 10 18 21 23 8
10 8 7 6 6 3 -0 19 17 7 8 6 5 5 7 9 11 11 9 9 10 7 3 6 7 7 6 7 8 8 7 8 7 5 7 23 5 -4 23 5 5 26 20
7 5 7 11 -1 30 13 8 7 4 5 4 6 7 9 9 7 6 10 7 5 7 8 7 8 8 8 6 6 5 6 9 9 9 14 29 1 8 15 15 21 12 8
14 17 2 27 7 8 8 3 4 5 5 7 8 10 8 5 6 8 6 7 9 9 9 8 8 8 9 10 11 11 11 11 11 11 14 22 15 20 14 29 11 7 11
15 14 7 9 5 2 3 5 5 6 9 10 8 5 5 8 7 7 9 9 9 8 9 11 11 15 15 17 19 20 21 20 21 19 19 25 23 18 13 7 7 11 16
10 8 3 2 4 5 5 6 8 9 7 5 5 7 8 7 9 9 8 9 10 10 12 16 15 14 15 13 12 12 17 15 23 17 12 37 9 10 5 8 13 19 12
Height
3147 3149 3150 3152 3154 3156 3157 3159 3160 3161 3163 3165 3165 3166 3167 3167 3167 3168 3168 3168 3168 3168 3168 3168 3167 3166 3166 3165 3164 3163 3162 3162 3161 3160 3159 3158 3156 3154 3153 3152 3150 3149 3147
3143 3144 3146 3148 3150 3152 3154 3155 3157 3158 3160 3161 3161 3162 3163 3163 3163 3164 3164 3164 3164 3164 3163 3163 3162 3162 3161 3161 3159 3159 3158 3157 3156 3154 3153 3152 3152 3149 3147 3146 3145 3143 3141
3138 3140 3142 3144 3146 3147 3149 3151 3153 3155 3156 3157 3157 3158 3159 3159 3159 3160 3160 3160 3160 3160 3160 3159 3159 3158 3157 3156 3156 3155 3154 3153 3152 3150 3149 3146 3145 3143 3142 3141 3139 3136 3134
3133 3135 3136 3138 3141 3143 3145 3146 3148 3149 3151 3152 3153 3154 3155 3155 3155 3156 3156 3155 3155 3155 3155 3155 3155 3154 3153 3152 3152 3150 3149 3148 3147 3145 3143 3141 3139 3136 3135 3133 3131 3129 3126
3129 3130 3131 3132 3135 3138 3140 3141 3143 3144 3146 3148 3149 3150 3150 3151 3151 3152 3152 3152 3151 3151 3151 3151 3150 3149 3148 3147 3146 3145 3144 3143 3141 3139 3137 3135 3132 3130 3126 3125 3124 3120 3118
3124 3125 3126 3127 3130 3132 3134 3136 3138 3140 3142 3144 3145 3146 3146 3147 3147 3147 3147 3147 3146 3146 3146 3146 3145 3144 3143 3142 3142 3140 3139 3137 3136 3133 3130 3128 3125 3122 3118 3113 3116 3110 3111
3118 3119 3121 3123 3125 3127 3129 3132 3134 3136 3137 3139 3140 3142 3143 3143 3143 3143 3142 3142 3142 3141 3142 3141 3141 3140 3139 3138 3137 3135 3133 3131 3129 3126 3124 3121 3118 3114 3111 3106 3103 3099 3099
3112 3114 3116 3118 3119 3121 3123 3126 3128 3131 3133 3135 3136 3137 3138 3138 3139 3139 3138 3138 3138 3138 3138 3137 3137 3135 3134 3133 3131 3129 3126 3124 3121 3119 3115 3111 3109 3106 3101 3097 3093 3087 3085
3106 3108 3111 3113 3115 3117 3118 3120 3122 3125 3127 3129 3130 3131 3132 3133 3133 3133 3133 3134 3134 3134 3133 3133 3131 3130 3128 3126 3124 3121 3117 3114 3111 3108 3105 3101 3098 3094 3090 3087 3083 3078 3070
3101 3104 3106 3109 3110 3112 3114 3116 3117 3119 3121 3123 3124 3125 3126 3127 3128 3129 3129 3129 3129 3129 3128 3127 3125 3123 3121 3118 3114 3111 3108 3104 3102 3098 3095 3091 3088 3083 3079 3076 3072 3068 3064
3096 3098 3101 3103 3105 3107 3110 3111 3113 3115 3117 3119 3120 3121 3122 3122 3123 3124 3124 3124 3123 3122 3121 3120 3117 3115 3112 3108 3104 3101 3098 3094 3092 3089 3084 3081 3078 3073 3069 3065 3061 3057 3053
3090 3092 3095 3097 3100 3102 3105 3107 3108 3110 3111 3113 3114 3115 3116 3117 3117 3117 3117 3117 3116 3114 3112 3109 3106 3103 3100 3097 3093 3090 3087 3083 3079 3076 3072 3068 3064 3059 3054 3050 3046 3042 3039
3083 3085 3089 3092 3095 3097 3100 3102 3104 3106 3107 3108 3109 3110 3111 3112 3111 3110 3110 3109 3106 3104 3101 3099 3097 3094 3092 3088 3084 3080 3076 3072 3068 3063 3059 3054 3050 3045 3041 3037 3032 3028 3024
3077 3080 3083 3087 3089 3092 3095 3097 3100 3100 3102 3103 3104 3104 3105 3105 3105 3103 3101 3099 3098 3096 3093 3090 3088 3085 3081 3077 3073 3069 3065 3061 3056 3052 3047 3041 3036 3031 3026 3022 3017 3012 3007
3070 3073 3077 3080 3084 3087 3089 3091 3093 3095 3096 3096 3097 3098 3097 3096 3096 3095 3093 3090 3089 3087 3084 3082 3079 3075 3071 3067 3062 3057 3052 3047 3042 3038 3034 3029 3025 3020 3014 3008 3004 2999 2995
3065 3068 3072 3075 3078 3081 3083 3085 3087 3088 3089 3090 3090 3090 3090 3089 3088 3086 3085 3083 3081 3079 3076 3073 3070 3066 3061 3056 3051 3044 3039 3036 3031 3026 3023 3018 3013 3008 3001 2996 2990 2987 2980
3058 3062 3066 3069 3071 3074 3077 3080 3081 3082 3083 3083 3083 3083 3082 3081 3080 3079 3077 3075 3073 3071 3067 3062 3058 3054 3049 3045 3040 3036 3031 3026 3022 3016 3012 3007 3001 2995 2988 2982 2975 2971 2969
3052 3056 3061 3064 3066 3069 3071 3073 3075 3075 3075 3075 3075 3075 3074 3074 3073 3071 3069 3066 3063 3060 3056 3052 3047 3043 3039 3034 3030 3026 3022 3018 3013 3008 3002 2994 2989 2980 2970 2962 2956 2954 2953
3049 3052 3055 3058 3060 3062 3064 3066 3067 3068 3068 3069 3069 3068 3068 3066 3064 3062 3059 3056 3053 3049 3045 3040 3037 3034 3031 3027 3022 3017 3013 3009 3005 3000 2993 2987 2975 2970 2958 2949 2945 2942 2940
3043 3046 3049 3052 3054 3055 3057 3058 3060 3060 3061 3061 3061 3061 3059 3057 3055 3052 3050 3046 3042 3040 3036 3033 3029 3026 3021 3018 3015 3010 3005 3001 2996 2992 2984 2976 2966 2959 2952 2945 2939 2938 2937
3035 3039 3041 3044 3047 3049 3051 3052 3052 3053 3054 3054 3054 3052 3050 3048 3046 3043 3040 3037 3034 3031 3027 3025 3021 3018 3013 3010 3006 3000 2995 2991 2987 2981 2976 2968 2961 2957 2950 2944 2940 2935 2934
3026 3031 3034 3037 3040 3042 3043 3045 3046 3046 3047 3046 3045 3044 3042 3039 3036 3034 3032 3028 3024 3021 3018 3015 3012 3007 3003 2999 2996 2992 2984 2979 2975 2971 2967 2961 2954 2952 2947 2943 2938 2936 2936
3021 3024 3026 3029 3033 3036 3037 3038 3040 3041 3040 3039 3037 3035 3033 3031 3027 3025 3021 3018 3014 3010 3007 3004 3001 2997 2992 2989 2984 2980 2975 2970 2966 2960 2957 2954 2948 2945 2943 2940 2937 2936 2935
3012 3017 3022 3026 3028 3030 3032 3033 3034 3034 3033 3032 3029 3027 3025 3022 3019 3014 3011 3007 3004 3000 2996 2993 2989 2986 2981 2976 2971 2966 2961 2958 2954 2950 2946 2944 2940 2937 2936 2935 2934 2934 2933
3013 3016 3017 3020 3024 3026 3027 3027 3028 3027 3025 3024 3021 3019 3015 3012 3008 3005 3001 2997 2994 2989 2985 2981 2976 2971 2968 2963 2957 2952 2947 2944 2943 2939 2936 2935 2933 2931 2930 2931 2931 2931 2930
3008 3012 3015 3017 3018 3019 3020 3019 3019 3018 3017 3014 3011 3008 3005 3001 2998 2994 2992 2989 2984 2980 2974 2970 2964 2961 2955 2952 2946 2942 2938 2936 2933 2931 2929 2927 2926 2927 2927 2927 2926 2926 2926